Location: Strawberry
(45.6646°N, 111.9596°W)
Time: 09:59:06
(UTC+00:00)

XW-2C - Visible Passes

Search period start: 27 November 2022 00:00
Search period end: 07 December 2022 00:00
Orbit: 493 x 512 km, 97.5° (Epoch: 26 November)

Date Brightness Start Highest point End Pass type
(mag) Time Alt. Az. Time Alt. Az. Time Alt. Az.
27 Nov ? 01:42:25 10° SW 01:45:04 18° W 01:47:43 10° NW visible
27 Nov ? 13:08:41 10° NNE 13:11:59 31° E 13:15:15 10° SSE visible
28 Nov ? 01:22:54 10° SSW 01:26:11 29° W 01:29:29 10° NW visible
28 Nov ? 12:50:24 10° NE 12:53:05 19° E 12:55:47 10° SE visible
29 Nov ? 01:03:44 10° S 01:07:20 49° W 01:10:57 10° NNW visible
29 Nov ? 12:32:42 10° ENE 12:34:09 12° E 12:35:35 10° ESE visible
29 Nov ? 14:04:41 10° N 14:08:15 50° WNW 14:11:46 10° SSW visible
30 Nov ? 00:44:50 10° SSE 00:48:32 86° WSW 00:52:15 10° NNW visible
30 Nov ? 13:45:50 10° NNE 13:49:29 88° WNW 13:53:08 10° SSW visible
01 Dec ? 00:26:10 10° SSE 00:29:46 55° ENE 00:33:23 10° N visible
01 Dec ? 02:02:39 10° WSW 02:03:53 11° W 02:05:09 10° WNW visible
01 Dec ? 13:27:06 10° NNE 13:30:41 53° E 13:34:14 10° S visible
02 Dec ? 01:42:17 10° SW 01:44:56 18° W 01:47:34 10° NW visible
02 Dec ? 13:08:31 10° NNE 13:11:48 31° E 13:15:04 10° SSE visible
03 Dec ? 01:22:44 10° SSW 01:26:00 30° W 01:29:17 10° NNW visible
03 Dec ? 12:50:12 10° NE 12:52:53 19° E 12:55:33 10° SE visible
04 Dec ? 01:03:31 10° S 01:07:07 50° W 01:10:42 10° NNW visible
04 Dec ? 12:32:29 10° ENE 12:33:53 12° E 12:35:16 10° ESE visible
04 Dec ? 14:04:26 10° N 14:07:59 51° WNW 14:11:31 10° SSW visible
05 Dec ? 00:44:35 10° SSE 00:48:16 87° WSW 00:51:57 10° NNW visible
05 Dec ? 13:45:31 10° NNE 13:49:11 89° W 13:52:50 10° SSW visible
06 Dec ? 00:25:52 10° SSE 00:29:27 54° ENE 00:33:03 10° N visible
06 Dec ? 02:02:18 10° WSW 02:03:34 11° W 02:04:51 10° WNW visible
06 Dec ? 13:26:44 10° NNE 13:30:20 52° E 13:33:53 10° S visible
